Tracking 34408 objects as of 14-Jun-2026
HD Live streaming from Space Station
objects crossing your sky now

THORAD AGENA D DEB

Track THORAD AGENA D DEB now!
10-day predictions


NORAD ID: 5347
Int'l Code: 1970-025KL
Perigee: 915.0 km
Apogee: 977.4 km
Inclination: 99.9 °
Period: 103.8 minutes
Semi major axis: 7317 km
RCS: 0.0272 m2 (small)
Launch date: April 8, 1970
Source: United States (US)
Launch site: AIR FORCE WESTERN TEST RANGE (AFWTR)

Note: This is SATELLITE DEBRIS
Your satellite tracking list
Your tracking list is empty




NASA's NSSDC Master Catalog

Two Line Element Set (TLE):
1 05347U 70025KL  26164.72830644  .00000549  00000-0  50759-3 0  9993
2 05347  99.9113  79.5871 0042618 201.3686 215.0396 13.87025308756435
Source of the keplerian elements: AFSPC